FW4655 Weather Reports


Display with metric or nautical units.
time (UTC)temp
F
wind
direction
speed
MPH
gust
MPH
rain 1hr
in
rain 24hr
in
rain mn
in
humidity
%
barometer
mb
20260906123512 57 105 0.0 0.0 0.01 0.01 0.01 90 1016.1
20260906123026 57 105 0.0 0.0 0.01 0.01 0.01 90 1016.2
20260906122516 57 105 0.0 0.0 0.00 0.00 0.00 90 1016.2
20260906122014 57 105 0.0 0.0 0.00 0.00 0.00 89 1016.3
20260906121505 57 105 0.0 0.0 0.00 0.00 0.00 89 1016.4
20260906121006 57 105 0.0 0.0 0.00 0.00 0.00 89 1016.4
20260906120508 57 107 0.0 0.0 0.00 0.00 0.00 89 1016.5
20260906120014 57 107 0.0 0.0 0.00 0.00 0.00 89 1016.5
20260906115508 57 107 0.0 0.0 0.00 0.00 0.00 89 1016.5
20260906115010 57 107 0.0 0.0 0.00 0.00 0.00 88 1016.5
20260906114532 57 107 0.0 0.0 0.00 0.00 0.00 88 1016.4
20260906114013 57 107 0.0 0.0 0.00 0.00 0.00 88 1016.3
20260906113517 57 107 0.0 0.0 0.00 0.00 0.00 88 1016.3
20260906113027 57 107 0.0 0.0 0.00 0.00 0.00 88 1016.3
20260906112516 57 107 0.0 0.0 0.00 0.00 0.00 88 1016.4
20260906112014 57 107 0.0 0.0 0.00 0.00 0.00 88 1016.4
20260906111528 57 107 0.0 0.0 0.00 0.00 0.00 88 1016.4
20260906111015 57 107 0.0 0.0 0.00 0.00 0.00 88 1016.4
20260906110506 57 107 0.0 0.0 0.00 0.00 0.00 88 1016.4
20260906110015 57 107 0.0 0.0 0.00 0.00 0.00 87 1016.4
20260906105506 57 107 0.0 0.0 0.00 0.00 0.00 87 1016.2
20260906105012 57 107 0.0 0.0 0.00 0.00 0.00 87 1016.2
20260906104518 57 107 0.0 0.0 0.00 0.00 0.00 87 1016.3
20260906104011 57 107 0.0 0.0 0.00 0.00 0.00 87 1016.3
20260906103512 57 107 0.0 0.0 0.00 0.00 0.00 87 1016.3
20260906103020 57 107 0.0 0.0 0.00 0.00 0.00 87 1016.3
20260906102514 57 107 0.0 0.0 0.00 0.00 0.00 87 1016.3
20260906102016 57 107 0.0 0.0 0.00 0.00 0.00 87 1016.3
20260906101525 58 107 0.0 0.0 0.00 0.00 0.00 87 1016.3
20260906101014 58 107 0.0 0.0 0.00 0.00 0.00 87 1016.3
20260906100514 58 103 0.0 0.0 0.00 0.00 0.00 87 1016.3
20260906100029 58 103 0.0 0.0 0.00 0.00 0.00 87 1016.3
20260906095518 58 103 0.0 0.0 0.00 0.00 0.00 86 1016.3
20260906095021 58 103 0.0 0.0 0.00 0.00 0.00 86 1016.3
20260906094524 58 103 0.0 0.0 0.00 0.00 0.00 86 1016.3
20260906094007 58 103 0.0 0.0 0.00 0.00 0.00 86 1016.2
20260906093510 58 103 0.0 0.0 0.00 0.00 0.00 86 1016.3
20260906093018 58 103 0.0 0.0 0.00 0.00 0.00 86 1016.3
20260906092510 58 103 0.0 0.0 0.00 0.00 0.00 85 1016.2
20260906092016 58 103 0.0 0.0 0.00 0.00 0.00 85 1016.2
20260906091522 58 103 0.0 0.0 0.00 0.00 0.00 85 1016.2
20260906091014 58 102 0.0 0.0 0.00 0.00 0.00 85 1016.3
20260906090516 58 102 0.0 0.0 0.00 0.00 0.00 85 1016.2
20260906090027 58 124 0.0 0.0 0.00 0.00 0.00 85 1016.2
20260906085516 58 124 0.0 0.0 0.00 0.00 0.00 85 1016.3
20260906085015 58 124 0.0 0.0 0.00 0.00 0.00 85 1016.3
20260906084536 58 124 0.0 0.0 0.00 0.00 0.00 85 1016.3
20260906084014 58 124 0.0 0.0 0.00 0.00 0.00 85 1016.3
20260906083516 58 124 0.0 0.0 0.00 0.00 0.00 85 1016.2
20260906083036 58 124 0.0 0.0 0.00 0.00 0.00 85 1016.2
20260906082509 58 124 0.0 0.0 0.00 0.00 0.00 84 1016.2
20260906082012 58 124 0.0 0.0 0.00 0.00 0.00 84 1016.3
20260906081536 58 124 0.0 0.0 0.00 0.00 0.00 85 1016.3
20260906081013 58 124 0.0 0.0 0.00 0.00 0.00 84 1016.2
20260906080517 59 124 0.0 0.0 0.00 0.00 0.00 84 1016.1
20260906080026 59 124 0.0 0.0 0.00 0.00 0.00 83 1016.2
20260906075513 59 124 0.0 0.0 0.00 0.00 0.00 83 1016.2
20260906075015 59 124 0.0 0.0 0.00 0.00 0.00 83 1016.3
20260906074532 59 159 0.0 0.0 0.00 0.00 0.00 83 1016.3
20260906074017 59 159 0.0 0.0 0.00 0.00 0.00 83 1016.3
20260906073518 59 159 0.0 0.0 0.00 0.00 0.00 83 1016.3
20260906073030 59 159 0.0 0.0 0.00 0.00 0.00 83 1016.3
20260906072517 59 159 0.0 0.0 0.00 0.00 0.00 82 1016.3
20260906072020 59 159 0.0 0.0 0.00 0.00 0.00 82 1016.3
20260906071531 59 136 0.0 0.0 0.00 0.00 0.00 82 1016.3
20260906071019 60 131 0.0 0.0 0.00 0.00 0.00 81 1016.3
20260906070515 59 131 0.0 0.0 0.00 0.00 0.00 81 1016.3
20260906070020 59 131 0.0 0.0 0.00 0.00 0.00 81 1016.3
20260906065514 59 131 0.0 0.0 0.00 0.00 0.00 81 1016.3
20260906065014 59 131 0.0 0.0 0.00 0.00 0.00 81 1016.4
20260906064525 60 131 0.0 0.0 0.00 0.00 0.00 81 1016.4
20260906064015 60 131 0.0 0.0 0.00 0.00 0.00 80 1016.4
20260906063517 60 131 0.0 0.0 0.00 0.00 0.00 80 1016.4
20260906063032 60 131 0.0 1.0 0.00 0.00 0.00 80 1016.4
20260906062518 60 231 0.0 1.0 0.00 0.00 0.00 80 1016.4
20260906062017 60 231 0.0 1.0 0.00 0.00 0.00 80 1016.4
20260906061537 59 65 0.0 0.0 0.00 0.00 0.00 80 1016.4
20260906061019 59 65 0.0 0.0 0.00 0.00 0.00 82 1016.3
20260906060520 59 260 0.0 0.0 0.00 0.00 0.00 82 1016.4
20260906060033 58 229 0.0 0.0 0.00 0.00 0.00 83 1016.4
20260906055518 58 229 0.0 0.0 0.00 0.00 0.00 83 1016.4
20260906055017 58 228 0.0 0.0 0.00 0.00 0.00 83 1016.5
20260906054523 58 226 0.0 0.0 0.00 0.00 0.00 83 1016.5
20260906054014 58 226 0.0 0.0 0.00 0.00 0.00 82 1016.5
20260906053511 58 226 0.0 0.0 0.00 0.00 0.00 83 1016.6
20260906053027 58 238 0.0 0.0 0.00 0.00 0.00 83 1016.5
20260906052516 58 238 0.0 0.0 0.00 0.00 0.00 83 1016.5
20260906052016 58 238 0.0 0.0 0.00 0.00 0.00 83 1016.5
20260906051527 58 238 0.0 0.0 0.00 0.00 0.00 82 1016.5
20260906051019 58 238 0.0 0.0 0.00 0.00 0.00 82 1016.5
20260906050519 58 238 0.0 1.0 0.00 0.00 0.00 81 1016.5
20260906050033 58 238 0.0 1.0 0.00 0.00 0.00 81 1016.4
20260906045520 58 324 0.0 0.0 0.00 0.00 0.00 81 1016.4
20260906045017 58 324 0.0 0.0 0.00 0.00 0.00 81 1016.4
20260906044534 58 324 0.0 0.0 0.00 0.00 0.00 80 1016.6
20260906044018 58 324 0.0 0.0 0.00 0.00 0.00 80 1016.7
20260906043514 58 324 0.0 1.0 0.00 0.00 0.00 80 1016.7
20260906043042 59 324 0.0 1.0 0.00 0.00 0.00 80 1016.8
20260906042511 59 324 0.0 0.0 0.00 0.00 0.00 79 1016.7
20260906042016 59 324 0.0 0.0 0.00 0.00 0.00 79 1016.7
20260906041530 59 324 0.0 0.0 0.00 0.00 0.00 79 1016.8
20260906041019 59 324 0.0 0.0 0.00 0.00 0.00 79 1016.8
20260906040521 59 324 0.0 0.0 0.00 0.00 0.00 78 1016.8
20260906040034 60 324 0.0 0.0 0.00 0.00 0.00 78 1016.8
20260906035519 60 323 0.0 0.0 0.00 0.00 0.00 78 1016.8
20260906035021 60 323 0.0 0.0 0.00 0.00 0.00 77 1016.7
20260906034536 60 323 0.0 0.0 0.00 0.00 0.00 77 1016.6
20260906034014 61 323 0.0 0.0 0.00 0.00 0.00 77 1016.6
20260906033514 61 323 0.0 0.0 0.00 0.00 0.00 76 1016.4
20260906033034 61 323 0.0 0.0 0.00 0.00 0.00 75 1016.4
20260906032522 62 323 0.0 0.0 0.00 0.00 0.00 74 1016.4
20260906032018 62 323 0.0 0.0 0.00 0.00 0.00 74 1016.3
20260906031504 63 323 0.0 0.0 0.00 0.00 0.00 73 1016.2
20260906031004 63 323 0.0 45.0 0.00 0.00 0.00 72 1016.1
20260906030503 64 323 0.0 45.0 0.00 0.00 0.00 71 1016.2
20260906030004 64 323 0.0 1.0 0.00 0.00 0.00 71 1016.1
20260906025506 64 297 0.0 0.0 0.00 0.00 0.00 70 1016.1
20260906025006 64 87 0.0 0.0 0.00 0.00 0.00 71 1016.0
20260906024510 65 87 0.0 0.0 0.00 0.00 0.00 70 1016.1
20260906024006 65 87 0.0 0.0 0.00 0.00 0.00 69 1016.0
20260906023510 66 87 0.0 0.0 0.00 0.00 0.00 67 1016.0
20260906023019 66 86 0.0 0.0 0.00 0.00 0.00 66 1015.9
20260906022512 67 86 0.0 9.0 0.00 0.00 0.00 64 1015.9
20260906022012 68 86 0.0 9.0 0.00 0.00 0.00 61 1015.9
20260906021521 68 87 0.0 0.0 0.00 0.00 0.00 59 1015.9
20260906021014 68 87 0.0 2.0 0.00 0.00 0.00 58 1016.0
20260906020516 69 86 0.0 2.0 0.00 0.00 0.00 57 1016.1
20260906020033 69 79 0.0 2.0 0.00 0.00 0.00 56 1016.1
20260906015507 69 100 0.0 2.0 0.00 0.00 0.00 56 1016.2
20260906015006 70 91 0.0 2.0 0.00 0.00 0.00 55 1016.2
20260906014506 70 82 0.0 3.0 0.00 0.00 0.00 55 1016.2
20260906014007 70 92 1.0 3.0 0.00 0.00 0.00 54 1016.2
20260906013507 71 91 0.0 3.0 0.00 0.00 0.00 53 1016.3
20260906013013 71 79 1.0 4.0 0.00 0.00 0.00 53 1016.2
20260906012507 71 94 1.0 4.0 0.00 0.00 0.00 53 1016.2
20260906012013 71 126 1.0 4.0 0.00 0.00 0.00 54 1016.2
20260906011518 71 107 0.0 4.0 0.00 0.00 0.00 53 1016.2
20260906011019 71 82 0.0 4.0 0.00 0.00 0.00 54 1016.2
20260906010513 70 86 2.0 5.0 0.00 0.00 0.00 55 1016.2
20260906010026 70 88 2.0 5.0 0.00 0.00 0.00 55 1016.2
20260906005514 70 93 0.0 0.0 0.00 0.00 0.00 57 1016.2
20260906005016 70 104 0.0 0.0 0.00 0.00 0.00 56 1016.3
20260906004528 70 108 0.0 2.0 0.00 0.00 0.00 56 1016.3
20260906004016 70 101 0.0 2.0 0.00 0.00 0.00 56 1016.3
20260906003506 70 131 1.0 2.0 0.00 0.00 0.00 55 1016.3
20260906003013 70 86 0.0 0.0 0.00 0.00 0.00 54 1016.3
20260906002508 70 86 0.0 3.0 0.00 0.00 0.00 53 1016.3
20260906002009 70 86 0.0 3.0 0.00 0.00 0.00 53 1016.3
20260906001514 70 101 0.0 3.0 0.00 0.00 0.00 54 1016.3
20260906001009 70 97 0.0 3.0 0.00 0.00 0.00 54 1016.3
20260906000508 70 82 2.0 3.0 0.00 0.00 0.00 54 1016.3
20260906000019 71 73 0.0 2.0 0.00 0.00 0.00 53 1016.3
20260905235510 71 141 0.0 2.0 0.00 0.00 0.00 52 1016.2
20260905235018 71 51 0.0 2.0 0.00 0.00 0.00 52 1016.2
20260905234527 72 281 0.0 1.0 0.00 0.00 0.00 52 1016.2
20260905234022 72 167 0.0 2.0 0.00 0.00 0.00 51 1016.2
20260905233516 72 233 0.0 2.0 0.00 0.00 0.00 51 1016.2
20260905233031 72 158 0.0 2.0 0.00 0.00 0.00 51 1016.3
20260905232519 72 160 0.0 2.0 0.00 0.00 0.00 52 1016.3
20260905232019 72 76 0.0 6.0 0.00 0.00 0.00 53 1016.4
20260905231512 71 321 1.0 81.0 0.00 0.00 0.00 53 1016.5
20260905231009 72 332 14.0 81.0 0.00 0.00 0.00 54 1016.5
20260905230508 72 287 10.0 58.0 0.00 0.00 0.00 52 1016.6
20260905230017 72 353 17.0 54.0 0.00 0.00 0.00 53 1016.6
20260905225513 73 5 3.0 5.0 0.00 0.00 0.00 52 1016.5
20260905225010 72 303 1.0 6.0 0.00 0.00 0.00 53 1016.6
20260905224523 72 340 2.0 6.0 0.00 0.00 0.00 54 1016.7
20260905224014 72 118 0.0 6.0 0.00 0.00 0.00 54 1016.7
20260905223513 72 88 3.0 35.0 0.00 0.01 0.00 55 1016.7
20260905223035 71 68 1.0 35.0 0.00 0.01 0.00 55 1016.8
20260905222517 71 63 0.0 4.0 0.00 0.01 0.00 55 1016.8
20260905222022 70 91 1.0 4.0 0.00 0.01 0.00 55 1016.9
20260905221542 70 47 0.0 4.0 0.00 0.02 0.00 55 1017.0
20260905221016 70 48 2.0 4.0 0.00 0.02 0.00 55 1017.0
20260905220516 70 72 0.0 4.0 0.00 0.02 0.00 55 1017.0
20260905220034 70 52 2.0 4.0 0.00 0.02 0.00 56 1017.1
20260905215511 70 37 1.0 5.0 0.00 0.02 0.00 55 1017.0
20260905215010 71 20 2.0 6.0 0.00 0.02 0.00 55 1017.1
20260905214517 71 67 3.0 6.0 0.00 0.03 0.00 55 1017.1
20260905214012 71 54 0.0 8.0 0.00 0.19 0.00 55 1017.1
20260905213512 71 57 3.0 8.0 0.00 0.31 0.00 55 1017.1
20260905213025 71 2 3.0 7.0 0.00 0.35 0.00 55 1017.1
20260905212513 71 282 0.0 4.0 0.00 0.38 0.00 54 1017.0
20260905212017 70 62 0.0 4.0 0.00 0.38 0.00 55 1017.0
20260905211539 71 92 2.0 4.0 0.00 0.38 0.00 53 1017.0
20260905211017 71 239 0.0 4.0 0.00 0.38 0.00 53 1017.0
20260905210518 72 113 1.0 4.0 0.00 0.38 0.00 52 1017.1
20260905210034 72 197 0.0 5.0 0.00 0.38 0.00 53 1017.2
20260905205517 71 214 3.0 5.0 0.00 0.38 0.00 54 1017.3
20260905205019 71 238 1.0 4.0 0.00 0.38 0.00 54 1017.4
20260905204531 71 105 1.0 4.0 0.00 0.38 0.00 55 1017.4
20260905204019 71 90 1.0 4.0 0.00 0.38 0.00 54 1017.5
20260905203511 71 169 1.0 4.0 0.00 0.38 0.00 55 1017.4
20260905203018 70 86 2.0 4.0 0.00 0.38 0.00 56 1017.4
20260905202513 70 105 2.0 5.0 0.00 0.38 0.00 56 1017.3
20260905202013 70 75 2.0 5.0 0.00 0.38 0.00 57 1017.4
20260905201525 69 24 2.0 6.0 0.00 0.38 0.00 60 1017.4
20260905201014 69 32 3.0 6.0 0.00 0.38 0.00 58 1017.4
20260905200515 69 1 2.0 6.0 0.00 0.38 0.00 60 1017.5
20260905200047 68 297 1.0 4.0 0.00 0.38 0.00 61 1017.4
20260905195518 68 302 0.0 4.0 0.00 0.38 0.00 61 1017.5
20260905195021 68 37 2.0 6.0 0.00 0.38 0.00 59 1017.6
20260905194535 69 90 3.0 6.0 0.00 0.38 0.00 60 1017.7
20260905194018 68 227 0.0 4.0 0.00 0.38 0.00 61 1017.7
20260905193518 67 216 2.0 5.0 0.00 0.38 0.00 62 1017.8
20260905193031 67 49 2.0 6.0 0.00 0.38 0.00 61 1017.8
20260905192520 67 94 2.0 6.0 0.00 0.38 0.00 63 1017.9
20260905192019 67 94 2.0 6.0 0.00 0.38 0.00 66 1017.9
20260905191526 66 103 3.0 6.0 0.00 0.38 0.00 65 1018.0
20260905191011 67 65 2.0 6.0 0.00 0.38 0.00 65 1018.0
20260905190513 67 218 1.0 6.0 0.00 0.38 0.00 66 1018.0
20260905190028 66 62 3.0 5.0 0.00 0.38 0.00 66 1018.1
20260905185516 67 28 2.0 8.0 0.00 0.38 0.00 67 1018.2
20260905185019 67 107 3.0 8.0 0.00 0.38 0.00 68 1018.1
20260905184534 66 70 1.0 6.0 0.00 0.38 0.00 67 1018.2
20260905184019 66 119 0.0 4.0 0.00 0.38 0.00 68 1018.2
20260905183515 65 1 0.0 5.0 0.00 0.38 0.00 69 1018.3
20260905183033 64 110 0.0 5.0 0.00 0.38 0.00 69 1018.2
20260905182522 64 41 3.0 5.0 0.00 0.38 0.00 69 1018.1
20260905182019 64 101 2.0 6.0 0.00 0.38 0.00 69 1018.3
20260905181519 64 174 4.0 6.0 0.00 0.38 0.00 68 1018.3
20260905181003 65 77 0.0 3.0 0.00 0.38 0.00 69 1018.3
20260905180503 64 108 0.0 4.0 0.00 0.38 0.00 69 1018.3
20260905180004 65 171 1.0 4.0 0.00 0.38 0.00 69 1018.3
20260905175503 64 122 1.0 5.0 0.00 0.38 0.00 71 1018.3
20260905175004 63 186 1.0 5.0 0.00 0.38 0.00 73 1018.3
20260905174506 63 93 0.0 6.0 0.00 0.38 0.00 72 1018.4
20260905174004 63 40 3.0 6.0 0.00 0.38 0.00 73 1018.3
20260905173507 63 63 0.0 5.0 0.00 0.38 0.00 74 1018.3
20260905173009 63 102 1.0 4.0 0.00 0.38 0.00 74 1018.3
20260905172508 62 226 0.0 4.0 0.00 0.38 0.00 76 1018.3
20260905172008 62 94 1.0 4.0 0.00 0.38 0.00 75 1018.4
20260905171532 63 68 0.0 0.0 0.00 0.38 0.00 76 1018.3
20260905171013 62 313 0.0 0.0 0.00 0.38 0.00 77 1018.3
20260905170510 62 129 0.0 21.0 0.00 0.38 0.00 78 1018.4
20260905170027 61 155 0.0 21.0 0.00 0.38 0.00 78 1018.4
20260905165513 61 224 0.0 3.0 0.00 0.38 0.00 80 1018.4
20260905165004 60 165 0.0 3.0 0.00 0.38 0.00 81 1018.4
20260905164506 60 96 1.0 3.0 0.00 0.38 0.00 82 1018.3
20260905164003 59 74 1.0 3.0 0.00 0.38 0.00 83 1018.3
20260905163504 59 111 1.0 3.0 0.00 0.38 0.00 83 1018.4
20260905163007 58 150 1.0 3.0 0.00 0.38 0.00 86 1018.4
20260905162503 58 79 1.0 3.0 0.00 0.38 0.00 87 1018.4
20260905162011 58 107 1.0 3.0 0.00 0.38 0.00 89 1018.4
20260905161517 57 152 0.0 3.0 0.00 0.38 0.00 91 1018.5
20260905161010 57 150 0.0 2.0 0.00 0.38 0.00 91 1018.5
20260905160509 56 78 0.0 2.0 0.00 0.38 0.00 91 1018.6
20260905160027 56 78 0.0 2.0 0.00 0.38 0.00 91 1018.6
20260905155514 56 108 0.0 2.0 0.00 0.38 0.00 92 1018.6
20260905155010 56 106 1.0 3.0 0.00 0.38 0.00 93 1018.5
20260905154544 55 98 1.0 3.0 0.00 0.39 0.00 93 1018.5
20260905154012 55 233 0.0 3.0 0.00 0.39 0.00 93 1018.5
20260905153515 55 119 0.0 2.0 0.00 0.39 0.00 93 1018.6
20260905153007 55 64 0.0 0.0 0.00 0.39 0.00 93 1018.6
20260905152504 55 97 0.0 2.0 0.00 0.39 0.00 94 1018.6
20260905152004 55 157 0.0 2.0 0.00 0.39 0.00 94 1018.6
20260905151511 55 97 0.0 2.0 0.00 0.39 0.00 94 1018.5
20260905151007 54 120 0.0 0.0 0.00 0.39 0.00 94 1018.5
20260905150507 54 130 0.0 1.0 0.00 0.39 0.00 94 1018.5
20260905150012 54 214 0.0 1.0 0.00 0.39 0.00 94 1018.6
20260905145509 54 229 0.0 0.0 0.00 0.39 0.00 94 1018.5
20260905145011 54 229 0.0 0.0 0.00 0.39 0.00 94 1018.5
20260905144526 53 165 0.0 0.0 0.00 0.39 0.00 94 1018.5
20260905144012 53 165 0.0 0.0 0.00 0.39 0.00 94 1018.5
20260905143514 53 165 0.0 0.0 0.00 0.39 0.00 94 1018.5
20260905143026 53 165 0.0 0.0 0.00 0.39 0.00 93 1018.4
20260905142515 53 165 0.0 0.0 0.00 0.39 0.00 93 1018.4
20260905142019 53 165 0.0 0.0 0.00 0.39 0.00 93 1018.4
20260905141531 53 165 0.0 0.0 0.00 0.39 0.00 93 1018.3
20260905141006 53 165 0.0 0.0 0.00 0.39 0.00 93 1018.4
20260905140503 53 139 0.0 0.0 0.00 0.39 0.00 93 1018.4
20260905140010 53 139 0.0 0.0 0.00 0.39 0.00 93 1018.4
20260905135509 53 139 0.0 0.0 0.00 0.39 0.00 93 1018.3
20260905135008 53 139 0.0 0.0 0.00 0.39 0.00 93 1018.4
20260905134514 53 139 0.0 0.0 0.00 0.39 0.00 93 1018.4
20260905134010 53 85 0.0 0.0 0.00 0.39 0.00 93 1018.4
20260905133512 53 84 0.0 0.0 0.00 0.39 0.00 93 1018.2
20260905133020 53 84 0.0 0.0 0.00 0.39 0.00 93 1018.2
20260905132511 53 85 0.0 0.0 0.00 0.39 0.00 93 1018.3
20260905132015 53 85 0.0 0.0 0.00 0.39 0.00 93 1018.3
20260905131525 53 85 0.0 0.0 0.00 0.39 0.00 93 1018.2
20260905131016 53 84 0.0 1.0 0.00 0.39 0.00 93 1018.1
20260905130520 53 84 0.0 1.0 0.00 0.39 0.00 93 1018.0
20260905130029 53 84 0.0 0.0 0.00 0.39 0.00 93 1017.9
20260905125516 53 84 0.0 0.0 0.00 0.39 0.00 93 1017.9
20260905125008 53 84 0.0 1.0 0.00 0.39 0.00 93 1017.9
20260905124512 53 84 0.0 1.0 0.00 0.39 0.00 93 1017.8
20260905124007 53 84 0.0 0.0 0.00 0.39 0.00 93 1017.8